Home   Weather   Fregenal de la Sierra   Past weeks
Flag for Spain

Past Weather in Fregenal de la Sierra, Badajoz, Spain — Yesterday and Last 2 Weeks

Now
59 °F

Passing clouds.


Feels Like: 56 °F
Forecast: 67 / 54 °F
Wind: 15 mph from West

Location: Rota Airport

Current Time: Jan 23, 2019 at 11:14:35 pm

Latest Report: Jan 23, 2019 at 10:00 pm


Visibility: N/A

Pressure: 30.04 "Hg

Humidity: 77%

Dew Point: 52 °F

Location of Fregenal de la SierraLocation

Past Weather in Fregenal de la Sierra — Graph

°F

Fregenal de la Sierra Temperature Yesterday

Maximum temperature yesterday: 57 °F (at 2:00 pm)
Minimum temperature yesterday: 39 °F (at 5:00 am)
Average temperature yesterday: 50 °F

High & Low Weather Summary for the Past Weeks

 TemperatureHumidityPressure
High61 °F (Jan 9, 4:00 pm)100% (Jan 10, 12:00 am)30.36 "Hg (Jan 10, 12:00 am)
Low36 °F (Jan 12, 7:00 am)38% (Jan 11, 2:00 pm)29.92 "Hg (Jan 20, 5:00 am)
Average50 °F77%30.15 "Hg
* Reported Jan 8 9:00 pm — Jan 23 9:00 pm, Fregenal de la Sierra. Weather by CustomWeather, © 2019

Note: Actual official high and low records may vary slightly from our data, if they occured in-between our weather recording intervals... More about our weather records

Advertising

Fregenal de la Sierra Weather History for the Previous 24 Hours

Scroll right to see more
 ConditionsComfort  
Time TempWeatherWind HumidityBarometerVisibility
9:00 pm
Wed, Jan 23
59 °FPassing clouds.14 mph72%30.04 "HgN/A
8:00 pm59 °FPassing clouds.13 mph77%30.04 "HgN/A
7:00 pm59 °FPassing clouds.13 mph72%30.04 "HgN/A
6:00 pm59 °FPartly sunny.14 mph72%30.01 "HgN/A
5:00 pm61 °FPartly sunny.13 mph68%30.01 "HgN/A
4:00 pm59 °FPartly sunny.17 mph68%30.04 "HgN/A
3:00 pm59 °FPartly sunny.15 mph68%30.04 "HgN/A
2:00 pm57 °FPartly sunny.17 mph72%30.07 "HgN/A
1:00 pm57 °FPartly sunny.16 mph72%30.09 "HgN/A
12:00 pm57 °FScattered clouds.17 mph77%30.09 "HgN/A
11:00 am55 °FPassing clouds.15 mph77%30.09 "HgN/A
10:00 am54 °FPassing clouds.16 mph82%30.09 "HgN/A
9:00 am52 °FScattered clouds.10 mph82%30.09 "HgN/A
8:00 am52 °FPassing clouds.13 mph82%30.09 "HgN/A
7:00 am52 °FPassing clouds.9 mph82%30.09 "HgN/A
6:00 am54 °FPassing clouds.15 mph77%30.09 "HgN/A
5:00 am54 °FPassing clouds.14 mph77%30.09 "HgN/A
4:00 am54 °FPassing clouds.15 mph77%30.12 "HgN/A
3:00 am55 °FPassing clouds.15 mph72%30.12 "HgN/A
2:00 am57 °FPassing clouds.18 mph72%30.09 "HgN/A
1:00 am57 °FPassing clouds.16 mph82%30.12 "HgN/A
12:00 am57 °FPassing clouds.13 mph77%30.12 "HgN/A
11:00 pm
Tue, Jan 22
55 °FPassing clouds.13 mph72%30.12 "HgN/A
Weather by CustomWeather, © 2019

See weather overview